Dewpoint
51 50 49 49 50 51 52 53 53 54 54 53 53 53 54 53 51 44 30 33 40 53 51 40 38 35 32 31 29 26 21 18 15 14 14 28 27 28 31 30 32 33 33 36 48
51 51 50 49 49 50 51 52 53 53 54 54 53 53 53 53 43 34 39 53 52 51 38 33 31 29 27 29 28 24 20 16 14 14 18 23 26 26 26 28 28 30 32 43 47
53 52 51 50 49 50 51 52 52 53 53 54 54 54 54 52 30 21 51 51 49 48 43 37 31 30 26 28 26 23 17 13 18 20 23 23 22 23 24 20 23 23 27 40 45
54 53 52 51 50 49 50 51 52 52 52 53 54 54 55 42 7 38 54 51 51 44 41 34 29 26 24 22 25 20 19 18 23 27 26 23 22 20 22 18 21 24 27 38 43
56 55 54 52 51 50 50 50 51 52 52 53 53 53 43 29 26 42 49 49 43 43 36 31 26 24 20 21 22 23 21 19 20 22 23 24 22 21 21 21 22 23 26 32 40
57 56 56 53 52 51 51 51 51 51 52 52 53 52 37 19 36 37 39 41 41 37 35 31 26 26 23 22 20 22 23 22 22 22 22 23 21 21 18 20 20 21 22 26 35
58 57 56 55 53 52 52 52 51 51 52 52 51 42 34 20 35 36 38 37 40 35 33 34 32 28 26 23 27 25 19 17 16 18 17 23 16 19 18 20 18 18 19 22 26
58 57 56 56 55 54 53 53 52 52 52 50 49 36 22 35 35 35 37 36 37 38 35 35 33 29 28 28 16 20 18 8 15 21 22 21 13 16 17 17 16 16 18 20 21
58 57 57 56 56 55 54 53 53 52 51 49 36 29 19 40 34 34 36 33 35 34 33 31 30 27 25 17 8 11 -1 11 9 21 22 19 17 18 17 19 16 16 17 18 20
58 57 57 56 56 55 54 53 52 46 44 37 30 25 27 24 33 34 36 35 33 32 32 30 28 24 20 9 7 -1 6 12 11 17 22 20 17 18 18 19 18 17 17 17 18
58 57 57 56 56 55 49 43 37 34 35 24 23 22 27 33 34 33 36 34 31 25 20 29 19 15 17 12 13 12 14 15 13 15 18 15 15 14 14 16 16 17 18 18 18
54 57 57 57 57 55 47 39 32 29 27 33 27 27 29 33 28 31 35 29 25 18 27 23 16 16 15 18 15 15 12 9 11 16 17 16 15 15 17 18 18 19 18 18 19
52 53 57 57 56 51 47 42 42 36 32 33 32 29 27 30 24 28 33 30 24 23 24 16 16 21 17 19 16 17 12 11 9 16 19 17 12 14 16 16 17 19 20 20 19
50 51 53 57 52 50 47 48 42 37 32 31 29 30 31 29 25 34 34 29 26 21 24 20 22 20 18 16 15 12 17 16 17 14 7 16 7 9 14 15 14 15 18 19 22
47 49 51 55 51 48 49 47 43 38 28 30 28 32 31 28 31 30 35 28 23 22 23 17 22 20 19 17 17 13 21 18 20 18 17 14 9 9 16 14 13 12 15 18 23
45 47 49 52 51 50 48 47 42 33 26 24 26 27 26 27 29 30 31 29 27 24 23 21 27 24 21 25 22 26 22 24 24 21 13 15 11 8 12 14 9 11 13 18 23
44 45 46 51 48 50 48 45 32 29 27 22 24 26 25 25 27 27 26 25 25 22 21 22 22 26 25 22 23 20 16 11 10 11 12 17 14 12 16 15 6 8 12 16 24
44 44 45 50 51 49 47 38 29 25 25 25 26 24 23 24 25 26 25 23 24 23 23 22 18 24 26 22 21 20 14 15 2 11 16 15 14 17 19 15 17 14 13 16 21
42 42 47 50 49 48 41 30 31 27 27 25 24 23 22 24 24 24 24 24 25 23 21 21 20 26 27 27 24 22 19 19 16 11 15 17 18 19 21 18 19 7 13 15 19
40 41 44 50 49 45 36 33 31 29 27 25 22 22 21 22 22 22 22 23 23 25 24 22 16 25 25 27 26 21 21 18 19 3 8 15 15 15 19 22 21 16 10 14 18
40 38 46 49 48 40 32 32 30 29 27 24 24 23 21 21 22 22 22 23 24 25 26 24 21 22 24 25 24 23 22 18 20 19 13 11 14 21 24 26 21 16 12 11 16
38 32 47 47 35 33 33 29 34 31 33 31 26 25 22 23 22 22 21 21 23 26 23 26 23 17 20 24 25 23 19 20 20 14 18 18 15 22 26 18 20 18 18 17 13
35 34 45 45 31 31 33 33 34 32 30 33 29 28 27 23 21 22 23 24 24 26 24 26 20 12 15 22 24 22 22 20 26 24 17 16 17 25 26 26 27 28 29 26 21
35 30 37 40 36 32 33 33 33 35 31 33 33 33 32 29 30 24 23 26 27 26 32 29 22 18 13 16 22 20 22 22 23 16 17 18 18 18 26 28 29 29 30 29 26
34 26 28 29 33 34 34 34 33 33 33 32 32 31 31 28 26 31 27 24 26 29 28 27 20 17 19 23 22 21 21 22 20 20 19 20 21 22 24 28 29 28 29 29 31
31 29 30 27 32 33 34 31 31 32 34 31 31 31 31 29 29 28 32 29 27 26 24 26 22 21 21 23 24 23 23 23 23 22 22 22 22 23 23 25 26 27 27 26 27
36 31 29 27 31 30 30 32 33 32 33 33 32 31 32 31 33 34 36 35 35 29 26 26 23 20 15 18 19 19 22 23 24 24 22 19 23 25 25 24 25 25 25 26 27
Lifted_Index
12 13 13 14 14 14 13 13 13 13 13 13 13 13 13 14 15 15 15 15 15 15 15 15 14 13 13 12 12 10 7 5 6 6 7 7 7 8 8 8 8 9 9 10 10
12 12 13 13 14 14 13 13 13 13 13 13 13 13 13 14 14 14 15 15 15 15 15 14 14 13 12 11 11 9 7 6 7 7 7 7 7 7 7 7 8 8 9 10 10
11 11 12 13 13 13 13 13 13 13 13 13 13 13 13 13 13 13 14 14 14 15 15 14 13 12 10 10 10 8 7 7 8 8 8 8 7 7 7 7 7 8 9 9 9
9 10 11 12 13 13 13 13 13 13 13 13 13 13 14 13 12 13 14 14 15 15 15 14 13 11 9 9 9 8 7 8 8 8 8 8 8 7 6 7 8 8 9 9 9
7 8 10 11 12 12 13 13 12 13 13 12 12 13 14 13 13 15 16 16 16 15 15 14 12 11 9 9 8 8 8 8 8 8 8 8 7 6 6 7 8 9 9 9 9
5 6 8 10 11 12 12 12 12 12 12 12 13 13 13 13 14 16 16 16 16 15 15 14 13 12 10 9 9 8 8 8 8 8 8 7 6 6 6 7 8 8 9 9 9
4 5 6 8 9 10 11 11 12 12 12 12 13 13 12 13 15 16 16 16 16 15 15 15 14 13 12 10 10 9 7 7 7 7 7 6 5 5 6 7 8 8 8 9 9
3 4 5 7 8 9 10 11 11 11 11 12 13 12 12 13 15 15 15 15 15 15 15 15 14 13 12 10 9 8 6 6 6 7 7 6 5 5 6 7 7 7 8 8 9
3 4 5 6 7 8 9 10 11 11 12 13 13 12 12 13 14 14 15 15 15 15 14 14 13 12 10 8 7 6 5 5 5 6 7 5 4 5 6 6 6 7 7 7 8
3 3 4 5 6 7 8 9 10 11 11 12 11 11 11 12 13 14 14 14 14 14 13 12 11 9 8 7 6 5 5 5 5 6 6 5 4 5 6 6 6 6 6 6 6
3 3 4 4 5 6 7 7 8 8 9 9 9 10 11 11 12 13 13 13 13 12 10 10 8 7 7 7 7 6 5 5 6 7 6 5 4 4 5 5 5 5 6 6 6
2 3 3 4 4 5 5 5 6 7 6 6 7 8 10 11 11 11 12 12 11 9 9 8 7 7 8 8 7 6 5 5 6 7 6 5 3 4 4 4 4 5 6 6 6
3 2 2 3 3 4 3 4 6 7 5 5 5 6 8 8 8 10 11 11 9 8 8 7 8 8 8 7 6 6 6 5 6 6 6 4 3 3 3 4 4 5 6 6 6
3 3 2 2 2 2 2 3 5 6 4 4 5 6 6 6 6 9 11 10 9 8 7 7 8 7 7 6 6 6 6 6 6 5 4 4 3 2 3 3 4 4 5 6 6
4 3 2 2 2 2 1 2 3 4 3 3 5 7 6 5 5 7 9 9 8 7 7 7 8 7 7 7 7 7 7 6 6 5 4 3 2 2 2 3 3 4 5 6 6
5 4 3 2 2 2 1 2 3 2 2 4 5 6 5 4 4 5 6 7 6 6 6 6 7 8 7 8 8 7 6 5 5 4 3 3 2 2 2 3 3 4 4 5 6
7 5 4 3 2 2 2 2 2 2 3 4 4 4 4 3 3 3 3 4 3 3 3 4 5 7 8 7 7 7 5 3 2 2 2 3 3 2 2 3 3 4 4 5 6
8 6 4 3 3 2 2 1 1 1 2 4 4 4 3 3 3 3 2 2 1 1 1 1 2 5 7 7 6 6 5 3 2 2 2 3 3 3 3 3 3 4 4 5 6
9 7 5 4 3 3 2 2 2 2 3 4 4 4 3 3 3 3 2 2 2 2 2 1 2 4 6 7 6 6 5 4 3 2 2 3 4 3 3 3 3 4 4 5 5
9 8 5 4 3 3 3 3 3 3 4 4 3 3 3 3 3 3 3 3 3 4 4 3 3 4 6 6 6 5 5 5 4 3 2 3 4 4 3 3 4 3 4 4 5
9 8 5 3 3 3 4 4 4 4 4 4 3 3 3 3 3 3 3 4 4 5 5 4 4 4 5 6 5 5 5 5 4 3 2 3 3 3 3 3 3 4 4 5 5
9 7 5 3 3 4 4 4 4 4 4 4 3 3 3 3 2 2 3 4 5 5 5 5 4 3 4 5 6 5 5 5 4 3 3 3 3 4 3 3 3 4 4 5 5
8 7 5 4 4 5 5 4 4 4 4 4 3 3 3 3 3 3 3 4 5 5 5 5 4 3 3 5 6 5 5 5 4 3 3 3 3 4 3 3 3 4 5 5 5
8 7 6 5 5 5 5 5 4 4 4 3 3 3 3 3 3 3 3 4 5 5 5 5 4 3 3 4 5 4 5 5 5 4 3 3 3 4 4 3 3 4 5 5 5
8 8 7 6 6 5 5 5 5 4 4 3 3 2 2 2 2 2 2 3 4 4 4 4 3 3 3 4 4 4 4 5 4 4 3 3 3 4 4 4 4 4 4 5 5
9 8 8 7 6 5 5 5 5 4 4 3 3 2 2 2 2 2 2 2 3 3 3 3 2 2 3 3 4 3 4 4 4 4 3 3 4 4 5 5 5 4 4 4 5
9 9 8 7 6 5 5 5 5 5 4 4 3 2 2 2 1 2 2 2 2 2 2 2 2 1 2 2 3 3 3 3 3 3 3 3 4 5 5 5 5 5 5 4 4